Location: Carr Mill
(33.2054°N, 85.9439°W)
Time: 00:26:26
(UTC+00:00)

STARLINK-2732 - Pass Details

Date: 01 November 2021
Orbit: 545 x 549 km, 53.1° (Epoch: 30 November)

Event Time Altitude Azimuth Distance (km) Brightness Sun altitude
Exits shadow 10:32:39 12° 348° (NNW) 1,708 5.9 -19.2°
Drops below altitude 10° 10:33:27 10° 359° (N) 1,818 6.2 -19.1°
Sets 10:36:53 0° 29° (NNE) 2,715 7.5 -18.3°
